Del Bajio, Mexico

9:09 PM CDT on August 21, 2017 (GMT -0500)
De Guanajuato International

Weather History for MMLO - November, 2012

Change the Weather History Date:

Saturday, November 3, 2012

  Actual Average Record
Temperature  
Mean Temperature 65 °F -  
Max Temperature 75 °F 78 °F 84 °F (2005)
Min Temperature 55 °F 48 °F 37 °F (1999)
Growing Degree Days 15 (Base 50)    
Moisture  
Dew Point 49 °F    
Average Humidity 61    
Maximum Humidity 100    
Minimum Humidity 38    
Precipitation  
Precipitation 0.00 in - - ()
Sea Level Pressure  
Sea Level Pressure 30.16 in    
Wind  
Wind Speed 1 mph ()    
Max Wind Speed 14 mph    
Max Gust Speed -    
Visibility 6.5 miles    
Events      
Averages and records for this station are not official NWS values.
T = Trace of Precipitation, MM = Missing Value Source: Averaged Metar Reports

Daily Weather History Graph

Daily Weather History Graph

Search for Another Location

Airport or City:

Trip Planner

Search our weather history database for the weather conditions in past years. The results will help you decide how hot, cold, wet, or windy it might be!

Date:

Astronomy

Nov. 03, 2012 Rise Set
Actual Time 6:49 AM CST 6:08 PM CST
Civil Twilight 6:26 AM CST 6:31 PM CST
Nautical Twilight 6:00 AM CST 6:58 PM CST
Astronomical Twilight 5:34 AM CST 7:24 PM CST
Moon 10:02 PM CST (11/3) 10:43 AM CST (11/3)
Length of Visible Light 12h 04m
Length of Day
11h 19m
Waning Gibbous, 80% of the Moon is Illuminated
Nov 3
Waning Gibbous
Nov 6
Last Quarter
Nov 13
New
Nov 20
First Quarter
Nov 28
Full

Hourly Weather History & Observations

Time (CST) Temp. Dew Point Humidity Pressure Visibility Wind Dir Wind Speed Gust Speed Precip Events Conditions
12:47 AM 59.0 °F 44.6 °F 59% 30.20 in 8.0 mi Calm Calm - N/A   Mostly Cloudy
1:47 AM 57.2 °F 46.4 °F 67% 30.20 in 8.0 mi Calm Calm - N/A   Mostly Cloudy
3:50 AM 57.2 °F 46.4 °F 67% 30.21 in 8.0 mi Calm Calm - N/A   Mostly Cloudy
4:45 AM 57.2 °F 44.6 °F 63% 30.20 in 8.0 mi Calm Calm - N/A   Mostly Cloudy
6:47 AM 55.4 °F 44.6 °F 67% 30.22 in 7.0 mi Calm Calm - N/A   Overcast
7:45 AM 57.2 °F 44.6 °F 63% 30.24 in 7.0 mi Calm Calm - N/A   Mostly Cloudy
8:45 AM 62.6 °F 51.8 °F 68% 29.96 in 5.0 mi Calm Calm - N/A   Overcast
9:51 AM 64.4 °F 53.6 °F 68% 30.29 in 5.0 mi Calm Calm - N/A   Overcast
10:44 AM 66.2 °F 53.6 °F 64% 30.29 in 4.0 mi Calm Calm - N/A   Overcast
11:43 AM 71.6 °F 51.8 °F 50% 29.92 in 4.0 mi Calm Calm - N/A   Overcast
12:42 PM 75.2 °F 50.0 °F 41% 30.21 in 5.0 mi Calm Calm - N/A   Overcast
1:44 PM 73.4 °F 46.4 °F 38% 30.21 in 5.0 mi Calm Calm - N/A   Overcast
2:46 PM 71.6 °F 46.4 °F 41% 29.81 in 7.0 mi Calm Calm - N/A   Overcast
3:44 PM 71.6 °F 46.4 °F 41% 30.18 in 7.0 mi Calm Calm - N/A   Overcast
4:54 PM 69.8 °F 46.4 °F 43% 30.18 in 7.0 mi Calm Calm - N/A   Overcast
6:50 PM 66.2 °F 46.4 °F 49% 30.21 in 7.0 mi Calm Calm - N/A   Overcast
7:48 PM 64.4 °F 46.4 °F 52% 30.21 in 7.0 mi NE 4.6 mph - N/A   Overcast
8:44 PM 60.8 °F 53.6 °F 77% 29.89 in 7.0 mi East 8.1 mph - N/A   Light Drizzle
9:46 PM 57.2 °F 57.2 °F 100% 30.27 in 7.0 mi SE 13.8 mph - N/A   Light Drizzle
10:42 PM 57.2 °F 57.2 °F 100% 30.27 in 7.0 mi SE 6.9 mph - N/A   Light Drizzle